THY211 EHAM-EDDK

Flight info

Callsign THY211
Flight time 1h 8m
Altitude 15000
Route ARNEM L620 SONEB Z841 GETNI T858 KOPAG KOPAG1B
Aircraft DC6/M-SDFGHRYW/C

Departure

Time 2026-05-06 18:46
Airport Amsterdam Airport Schiphol (EHAM)

Arrival

Time 2026-05-06 19:54
Airport Cologne Bonn Airport (EDDK)
Time Latitude Longitude Altitude Speed Heading
2026-05-06 18:10 52.30892 4.77302 -1 ft 0 kts
2026-05-06 18:33 52.30884 4.77302 -29 ft 4 kts 356°
2026-05-06 18:33 52.30858 4.77309 7 ft 4 kts
2026-05-06 18:34 52.30846 4.77286 -1 ft 4 kts 71°
2026-05-06 18:34 52.30844 4.77270 -1 ft 0 kts 78°
2026-05-06 18:36 52.30843 4.77299 -1 ft 5 kts 94°
2026-05-06 18:36 52.30838 4.77392 -1 ft 11 kts 101°
2026-05-06 18:36 52.30781 4.77462 -1 ft 14 kts 183°
2026-05-06 18:36 52.30674 4.77451 -1 ft 16 kts 191°
2026-05-06 18:37 52.30592 4.77297 -1 ft 20 kts 239°
2026-05-06 18:37 52.30515 4.77100 -1 ft 22 kts 238°
2026-05-06 18:37 52.30434 4.76887 -1 ft 22 kts 238°
2026-05-06 18:37 52.30350 4.76670 -1 ft 23 kts 236°
2026-05-06 18:38 52.30267 4.76452 -1 ft 23 kts 238°
2026-05-06 18:38 52.30181 4.76231 -1 ft 23 kts 239°
2026-05-06 18:38 52.30096 4.76003 -1 ft 24 kts 237°
2026-05-06 18:38 52.30007 4.75772 -1 ft 24 kts 239°
2026-05-06 18:39 52.29917 4.75537 -1 ft 25 kts 238°
2026-05-06 18:39 52.29847 4.75352 -1 ft 15 kts 241°
2026-05-06 18:39 52.29842 4.75193 -1 ft 15 kts 304°
2026-05-06 18:40 52.29974 4.74939 -1 ft 15 kts 310°
2026-05-06 18:40 52.30045 4.74814 -1 ft 15 kts 314°
2026-05-06 18:40 52.30106 4.74702 5 ft 11 kts 309°
2026-05-06 18:40 52.30145 4.74629 10 ft 10 kts 311°
2026-05-06 18:41 52.30219 4.74498 10 ft 20 kts 311°
2026-05-06 18:41 52.30288 4.74364 8 ft 10 kts 310°
2026-05-06 18:41 52.30335 4.74259 -1 ft 11 kts 286°
2026-05-06 18:41 52.30358 4.74198 -1 ft 7 kts 302°
2026-05-06 18:42 52.30359 4.74104 -1 ft 9 kts 248°
2026-05-06 18:42 52.30316 4.74026 -1 ft 9 kts 214°
2026-05-06 18:42 52.30266 4.73969 -1 ft 11 kts 215°
2026-05-06 18:42 52.30240 4.73938 -1 ft 0 kts 216°
2026-05-06 18:43 52.30231 4.73927 -1 ft 6 kts 217°
2026-05-06 18:44 52.30190 4.73823 -2 ft 14 kts 271°
2026-05-06 18:44 52.30234 4.73742 -3 ft 0 kts
2026-05-06 18:45 52.30367 4.73753 -4 ft 47 kts
2026-05-06 18:45 52.30867 4.73805 -1 ft 95 kts
2026-05-06 18:45 52.31642 4.73855 50 ft 124 kts
2026-05-06 18:45 52.32578 4.73917 144 ft 146 kts
2026-05-06 18:46 52.33645 4.74024 354 ft 163 kts
2026-05-06 18:46 52.34793 4.74206 703 ft 166 kts
2026-05-06 18:46 52.35926 4.74462 1198 ft 161 kts 11°
2026-05-06 18:46 52.36998 4.74806 1597 ft 155 kts 22°
2026-05-06 18:47 52.37817 4.75898 1937 ft 151 kts 51°
2026-05-06 18:47 52.38472 4.77208 2330 ft 147 kts 48°
2026-05-06 18:47 52.39147 4.78466 2685 ft 147 kts 50°
2026-05-06 18:47 52.39821 4.79753 2963 ft 152 kts 49°
2026-05-06 18:48 52.40520 4.81081 3252 ft 156 kts 49°
2026-05-06 18:48 52.41200 4.82474 3548 ft 158 kts 57°
2026-05-06 18:48 52.41697 4.84074 3841 ft 159 kts 60°
2026-05-06 18:48 52.42288 4.85602 4123 ft 161 kts 55°
2026-05-06 18:49 52.42921 4.87144 4446 ft 161 kts 55°
2026-05-06 18:49 52.43544 4.88680 4796 ft 160 kts 55°
2026-05-06 18:49 52.44175 4.90148 5194 ft 156 kts 54°
2026-05-06 18:49 52.44798 4.91603 5531 ft 156 kts 52°
2026-05-06 18:50 52.45473 4.93033 5796 ft 161 kts 52°
2026-05-06 18:50 52.46145 4.94495 6142 ft 161 kts 52°
2026-05-06 18:50 52.46816 4.95953 6476 ft 160 kts 52°
2026-05-06 18:50 52.47448 4.97442 6743 ft 163 kts 62°
2026-05-06 18:51 52.47679 4.99325 6940 ft 173 kts 91°
2026-05-06 18:51 52.47310 5.01222 7206 ft 180 kts 117°
2026-05-06 18:51 52.46486 5.02769 7524 ft 180 kts 131°
2026-05-06 18:51 52.45605 5.04197 7826 ft 181 kts 133°
2026-05-06 18:52 52.44670 5.05606 8094 ft 184 kts 133°
2026-05-06 18:52 52.43739 5.07072 8363 ft 187 kts 133°
2026-05-06 18:52 52.42805 5.08582 8632 ft 190 kts 133°
2026-05-06 18:52 52.41868 5.10138 8907 ft 193 kts 132°
2026-05-06 18:53 52.40917 5.11712 9185 ft 196 kts 133°
2026-05-06 18:53 52.39970 5.13319 9484 ft 196 kts 132°
2026-05-06 18:53 52.39029 5.14935 9805 ft 196 kts 132°
2026-05-06 18:53 52.38085 5.16554 10096 ft 197 kts 132°
2026-05-06 18:54 52.37132 5.18186 10343 ft 200 kts 133°
2026-05-06 18:54 52.36173 5.19837 10611 ft 201 kts 132°
2026-05-06 18:54 52.35202 5.21515 10848 ft 205 kts 133°
2026-05-06 18:54 52.34219 5.23220 11110 ft 207 kts 133°
2026-05-06 18:55 52.33231 5.24937 11401 ft 207 kts 133°
2026-05-06 18:55 52.32262 5.26639 11763 ft 203 kts 132°
2026-05-06 18:55 52.31295 5.28346 12014 ft 206 kts 133°
2026-05-06 18:55 52.30321 5.30070 12295 ft 207 kts 133°
2026-05-06 18:56 52.29341 5.31810 12592 ft 208 kts 133°
2026-05-06 18:56 52.28363 5.33556 12857 ft 210 kts 133°
2026-05-06 18:56 52.27366 5.35341 13073 ft 214 kts 133°
2026-05-06 18:56 52.26361 5.37143 13369 ft 214 kts 133°
2026-05-06 18:57 52.25359 5.38954 13651 ft 216 kts 133°
2026-05-06 18:57 52.24352 5.40785 13901 ft 218 kts 133°
2026-05-06 18:57 52.23331 5.42642 14132 ft 219 kts 133°
2026-05-06 18:57 52.22320 5.44482 14397 ft 219 kts 132°
2026-05-06 18:58 52.21302 5.46314 14676 ft 217 kts 133°
2026-05-06 18:58 52.20287 5.48143 14891 ft 218 kts 133°
2026-05-06 18:58 52.19255 5.50001 14917 ft 226 kts 133°
2026-05-06 18:58 52.18199 5.51902 14929 ft 230 kts 133°
2026-05-06 18:59 52.17110 5.53865 14931 ft 235 kts 133°
2026-05-06 18:59 52.16014 5.55868 14930 ft 239 kts 129°
2026-05-06 18:59 52.15266 5.58284 14910 ft 243 kts 104°
2026-05-06 18:59 52.14972 5.60999 14938 ft 243 kts 98°
2026-05-06 19:00 52.14684 5.63735 14929 ft 247 kts 99°
2026-05-06 19:00 52.14391 5.66508 14927 ft 250 kts 98°
2026-05-06 19:00 52.14100 5.69307 14923 ft 252 kts 98°
2026-05-06 19:00 52.13901 5.71208 14925 ft 253 kts 98°
2026-05-06 19:01 52.13506 5.74968 14917 ft 256 kts 99°
2026-05-06 19:01 52.13206 5.77824 14922 ft 256 kts 98°
2026-05-06 19:01 52.12901 5.80691 14922 ft 257 kts 99°
2026-05-06 19:01 52.12599 5.83564 14920 ft 258 kts 98°
2026-05-06 19:02 52.12292 5.86447 14921 ft 259 kts 98°
2026-05-06 19:02 52.11985 5.89336 14918 ft 259 kts 99°
2026-05-06 19:02 52.11675 5.92226 14922 ft 260 kts 98°
2026-05-06 19:02 52.11366 5.95124 14919 ft 260 kts 98°
2026-05-06 19:03 52.11055 5.98021 14920 ft 260 kts 98°
2026-05-06 19:03 52.10744 6.00916 14922 ft 260 kts 99°
2026-05-06 19:03 52.10431 6.03813 14922 ft 260 kts 99°
2026-05-06 19:03 52.10119 6.06712 14922 ft 260 kts 99°
2026-05-06 19:04 52.09804 6.09612 14922 ft 260 kts 99°
2026-05-06 19:04 52.09490 6.12510 14921 ft 260 kts 99°
2026-05-06 19:04 52.09175 6.15405 14924 ft 260 kts 99°
2026-05-06 19:04 52.08859 6.18307 14924 ft 260 kts 99°
2026-05-06 19:05 52.08542 6.21199 14926 ft 260 kts 99°
2026-05-06 19:05 52.08226 6.24099 14926 ft 260 kts 99°
2026-05-06 19:05 52.07905 6.26997 14926 ft 260 kts 99°
2026-05-06 19:05 52.07588 6.29887 14925 ft 260 kts 99°
2026-05-06 19:06 52.07270 6.32766 14922 ft 260 kts 99°
2026-05-06 19:06 52.06948 6.35681 14930 ft 260 kts 99°
2026-05-06 19:06 52.06631 6.38539 14935 ft 260 kts 99°
2026-05-06 19:06 52.06305 6.41473 14928 ft 261 kts 99°
2026-05-06 19:07 52.05986 6.44335 14926 ft 261 kts 99°
2026-05-06 19:07 52.05768 6.46289 14926 ft 261 kts 99°
2026-05-06 19:07 52.05339 6.50124 14922 ft 260 kts 99°
2026-05-06 19:07 52.05014 6.53017 14921 ft 260 kts 99°
2026-05-06 19:08 52.04689 6.55912 14921 ft 260 kts 99°
2026-05-06 19:08 52.04364 6.58798 14921 ft 261 kts 99°
2026-05-06 19:08 52.04036 6.61697 14922 ft 261 kts 99°
2026-05-06 19:08 52.03708 6.64593 14922 ft 260 kts 99°
2026-05-06 19:09 52.03381 6.67484 14920 ft 260 kts 99°
2026-05-06 19:09 52.03051 6.70380 14921 ft 261 kts 99°
2026-05-06 19:09 52.02722 6.73264 14919 ft 261 kts 99°
2026-05-06 19:09 52.02358 6.76145 14912 ft 260 kts 105°
2026-05-06 19:10 52.01562 6.78778 14910 ft 260 kts 121°
2026-05-06 19:10 52.00567 6.81218 14914 ft 259 kts 123°
2026-05-06 19:10 51.99600 6.83691 14917 ft 260 kts 121°
2026-05-06 19:10 51.98668 6.86211 14911 ft 260 kts 120°
2026-05-06 19:11 51.97730 6.88718 14912 ft 261 kts 121°
2026-05-06 19:11 51.96780 6.91226 14906 ft 262 kts 121°
2026-05-06 19:11 51.95827 6.93744 14908 ft 262 kts 121°
2026-05-06 19:11 51.94871 6.96265 14909 ft 262 kts 121°
2026-05-06 19:12 51.93918 6.98786 14910 ft 263 kts 121°
2026-05-06 19:12 51.92959 7.01310 14907 ft 263 kts 121°
2026-05-06 19:12 51.92001 7.03834 14908 ft 263 kts 121°
2026-05-06 19:12 51.91368 7.05503 14906 ft 263 kts 121°
2026-05-06 19:13 51.90081 7.08881 14907 ft 263 kts 121°
2026-05-06 19:13 51.89120 7.11408 14906 ft 263 kts 121°
2026-05-06 19:13 51.88159 7.13928 14910 ft 263 kts 121°
2026-05-06 19:13 51.87196 7.16450 14905 ft 264 kts 121°
2026-05-06 19:14 51.86556 7.18128 14905 ft 264 kts 121°
2026-05-06 19:14 51.85592 7.20650 14908 ft 264 kts 121°
2026-05-06 19:14 51.84628 7.23168 14904 ft 264 kts 121°
2026-05-06 19:14 51.83664 7.25693 14903 ft 264 kts 121°
2026-05-06 19:15 51.82701 7.28212 14903 ft 264 kts 121°
2026-05-06 19:15 51.81421 7.31549 14903 ft 264 kts 121°
2026-05-06 19:15 51.80775 7.33233 14903 ft 264 kts 120°
2026-05-06 19:15 51.79803 7.35773 14904 ft 264 kts 120°
2026-05-06 19:16 51.78834 7.38288 14904 ft 264 kts 121°
2026-05-06 19:16 51.77868 7.40803 14901 ft 264 kts 120°
2026-05-06 19:16 51.76906 7.43299 14900 ft 264 kts 121°
2026-05-06 19:16 51.75931 7.45835 14898 ft 264 kts 121°
2026-05-06 19:17 51.74962 7.48343 14900 ft 264 kts 121°
2026-05-06 19:17 51.73994 7.50854 14896 ft 264 kts 121°
2026-05-06 19:17 51.73022 7.53366 14896 ft 264 kts 121°
2026-05-06 19:17 51.72041 7.55856 14892 ft 263 kts 124°
2026-05-06 19:18 51.70759 7.57954 14878 ft 263 kts 142°
2026-05-06 19:18 51.69298 7.59724 14884 ft 262 kts 143°
2026-05-06 19:18 51.67818 7.61437 14886 ft 262 kts 143°
2026-05-06 19:18 51.66346 7.63180 14890 ft 263 kts 143°
2026-05-06 19:19 51.64874 7.64930 14891 ft 263 kts 143°
2026-05-06 19:19 51.63402 7.66678 14893 ft 263 kts 143°
2026-05-06 19:19 51.61927 7.68430 14891 ft 264 kts 143°
2026-05-06 19:19 51.60452 7.70182 14895 ft 264 kts 143°
2026-05-06 19:20 51.58971 7.71940 14892 ft 264 kts 143°
2026-05-06 19:20 51.57495 7.73695 14889 ft 265 kts 143°
2026-05-06 19:20 51.56021 7.75463 14893 ft 264 kts 143°
2026-05-06 19:20 51.54549 7.77239 14889 ft 264 kts 144°
2026-05-06 19:21 51.53091 7.79022 14892 ft 263 kts 143°
2026-05-06 19:21 51.51637 7.80811 14892 ft 263 kts 143°
2026-05-06 19:21 51.50185 7.82576 14890 ft 262 kts 143°
2026-05-06 19:21 51.48737 7.84351 14891 ft 262 kts 143°
2026-05-06 19:22 51.47292 7.86127 14892 ft 262 kts 143°
2026-05-06 19:22 51.45851 7.87896 14887 ft 261 kts 143°
2026-05-06 19:22 51.44405 7.89669 14885 ft 261 kts 143°
2026-05-06 19:22 51.42965 7.91437 14881 ft 261 kts 143°
2026-05-06 19:23 51.41541 7.93181 14881 ft 261 kts 143°
2026-05-06 19:23 51.40049 7.94825 14752 ft 264 kts 154°
2026-05-06 19:23 51.38262 7.95620 14456 ft 272 kts 176°
2026-05-06 19:23 51.36383 7.95292 14198 ft 275 kts 198°
2026-05-06 19:24 51.34619 7.94011 13983 ft 276 kts 210°
2026-05-06 19:24 51.32897 7.92635 13771 ft 278 kts 205°
2026-05-06 19:24 51.31057 7.91653 13548 ft 281 kts 196°
2026-05-06 19:24 51.29149 7.90959 13318 ft 281 kts 194°
2026-05-06 19:25 51.27262 7.90112 13051 ft 282 kts 199°
2026-05-06 19:25 51.25388 7.89210 12836 ft 282 kts 198°
2026-05-06 19:25 51.23494 7.88388 12621 ft 282 kts 196°
2026-05-06 19:25 51.21626 7.87597 12414 ft 282 kts 196°
2026-05-06 19:26 51.19740 7.86772 12281 ft 279 kts 196°
2026-05-06 19:26 51.17883 7.85959 12187 ft 276 kts 196°
2026-05-06 19:26 51.16037 7.85153 12085 ft 274 kts 196°
2026-05-06 19:26 51.14208 7.84358 11981 ft 272 kts 197°
2026-05-06 19:27 51.12390 7.83570 11852 ft 271 kts 197°
2026-05-06 19:27 51.10555 7.82770 11635 ft 274 kts 196°
2026-05-06 19:27 51.08709 7.81968 11420 ft 276 kts 196°
2026-05-06 19:27 51.06845 7.81154 11152 ft 278 kts 197°
2026-05-06 19:28 51.05085 7.79917 10870 ft 277 kts 210°
2026-05-06 19:28 51.03410 7.78393 10633 ft 277 kts 212°
2026-05-06 19:28 51.01736 7.76903 10374 ft 274 kts 210°
2026-05-06 19:28 51.00074 7.75510 10153 ft 267 kts 209°
2026-05-06 19:29 50.98451 7.74136 9927 ft 262 kts 210°
2026-05-06 19:29 50.96858 7.72775 9694 ft 258 kts 210°
2026-05-06 19:29 50.95285 7.71427 9432 ft 256 kts 210°
2026-05-06 19:29 50.93721 7.70093 9131 ft 255 kts 210°
2026-05-06 19:30 50.92157 7.68762 8846 ft 254 kts 210°
2026-05-06 19:30 50.90604 7.67441 8566 ft 253 kts 210°
2026-05-06 19:30 50.89051 7.66121 8281 ft 253 kts 210°
2026-05-06 19:30 50.87509 7.64807 8005 ft 252 kts 210°
2026-05-06 19:31 50.85968 7.63501 7739 ft 250 kts 210°
2026-05-06 19:31 50.84438 7.62201 7483 ft 249 kts 209°
2026-05-06 19:31 50.81397 7.59624 6966 ft 246 kts 209°
2026-05-06 19:32 50.79895 7.58351 6704 ft 244 kts 210°
2026-05-06 19:32 50.78395 7.57086 6444 ft 244 kts 210°
2026-05-06 19:32 50.76904 7.55827 6179 ft 241 kts 210°
2026-05-06 19:32 50.75442 7.54589 5942 ft 236 kts 210°
2026-05-06 19:33 50.74007 7.53376 5697 ft 232 kts 209°
2026-05-06 19:33 50.72621 7.52137 5438 ft 227 kts 216°
2026-05-06 19:33 50.71554 7.50345 5142 ft 223 kts 237°
2026-05-06 19:33 50.70817 7.48219 4886 ft 220 kts 250°
2026-05-06 19:34 50.70305 7.45969 4627 ft 218 kts 252°
2026-05-06 19:34 50.69780 7.43736 4378 ft 215 kts 255°
2026-05-06 19:34 50.69649 7.41454 4079 ft 211 kts 282°
2026-05-06 19:34 50.70121 7.39304 3847 ft 205 kts 297°
2026-05-06 19:35 50.70991 7.37567 3591 ft 201 kts 318°
2026-05-06 19:35 50.72001 7.36060 3435 ft 198 kts 318°
2026-05-06 19:35 50.73008 7.34611 3288 ft 194 kts 320°
2026-05-06 19:35 50.74003 7.33202 3212 ft 186 kts 319°
2026-05-06 19:36 50.74926 7.31855 3197 ft 177 kts 319°
2026-05-06 19:36 50.75844 7.30546 2968 ft 178 kts 320°
2026-05-06 19:36 50.76747 7.29238 2935 ft 172 kts 319°
2026-05-06 19:36 50.77630 7.27958 2929 ft 172 kts 319°
2026-05-06 19:37 50.78505 7.26683 2926 ft 171 kts 319°
2026-05-06 19:37 50.79375 7.25415 2988 ft 171 kts 319°
2026-05-06 19:37 50.80167 7.23987 3154 ft 177 kts 301°
2026-05-06 19:37 50.80400 7.22072 3408 ft 182 kts 268°
2026-05-06 19:38 50.79982 7.20178 3687 ft 184 kts 243°
2026-05-06 19:38 50.79355 7.18434 3973 ft 181 kts 245°
2026-05-06 19:38 50.78765 7.16656 4110 ft 191 kts 245°
2026-05-06 19:38 50.78136 7.14764 4072 ft 192 kts 245°
2026-05-06 19:39 50.77525 7.12929 4063 ft 188 kts 245°
2026-05-06 19:39 50.76916 7.11106 4056 ft 187 kts 245°
2026-05-06 19:39 50.76312 7.09302 4057 ft 183 kts 245°
2026-05-06 19:39 50.75715 7.07539 4061 ft 181 kts 245°
2026-05-06 19:40 50.75120 7.05790 4060 ft 181 kts 245°
2026-05-06 19:40 50.74371 7.04208 4025 ft 185 kts 217°
2026-05-06 19:40 50.73125 7.03719 4075 ft 190 kts 179°
2026-05-06 19:40 50.71850 7.04302 4080 ft 194 kts 150°
2026-05-06 19:41 50.70796 7.05621 4089 ft 195 kts 136°
2026-05-06 19:41 50.69845 7.07116 4084 ft 191 kts 132°
2026-05-06 19:41 50.68919 7.08604 4076 ft 189 kts 133°
2026-05-06 19:41 50.67999 7.10074 4069 ft 188 kts 133°
2026-05-06 19:42 50.67080 7.11542 4069 ft 187 kts 133°
2026-05-06 19:42 50.66167 7.13026 4024 ft 189 kts 132°
2026-05-06 19:42 50.65259 7.14528 3998 ft 191 kts 132°
2026-05-06 19:42 50.64334 7.16046 3992 ft 192 kts 132°
2026-05-06 19:43 50.63410 7.17566 3992 ft 192 kts 132°
2026-05-06 19:43 50.62482 7.19088 3992 ft 193 kts 132°
2026-05-06 19:43 50.61555 7.20611 3995 ft 193 kts 132°
2026-05-06 19:43 50.60603 7.22096 3989 ft 192 kts 134°
2026-05-06 19:44 50.59756 7.23705 3971 ft 191 kts 116°
2026-05-06 19:44 50.59311 7.25642 4001 ft 188 kts 106°
2026-05-06 19:44 50.58936 7.27620 3992 ft 188 kts 102°
2026-05-06 19:44 50.58579 7.29595 3982 ft 186 kts 103°
2026-05-06 19:45 50.58219 7.31535 3977 ft 184 kts 103°
2026-05-06 19:45 50.57987 7.33474 3966 ft 180 kts 85°
2026-05-06 19:45 50.58303 7.35351 3985 ft 178 kts 64°
2026-05-06 19:45 50.58740 7.37180 3999 ft 180 kts 63°
2026-05-06 19:46 50.59223 7.39002 3990 ft 180 kts 65°
2026-05-06 19:46 50.59696 7.40810 3987 ft 177 kts 60°
2026-05-06 19:46 50.60482 7.42265 3981 ft 176 kts 31°
2026-05-06 19:46 50.61605 7.42897 3977 ft 173 kts
2026-05-06 19:47 50.62768 7.42614 3981 ft 163 kts 340°
2026-05-06 19:47 50.63795 7.42042 3956 ft 155 kts 340°
2026-05-06 19:47 50.64788 7.41487 3932 ft 151 kts 340°
2026-05-06 19:47 50.65795 7.40882 3845 ft 160 kts 339°
2026-05-06 19:48 50.66847 7.40241 3729 ft 164 kts 339°
2026-05-06 19:48 50.67921 7.39587 3583 ft 165 kts 339°
2026-05-06 19:48 50.68973 7.38936 3381 ft 160 kts 339°
2026-05-06 19:48 50.69998 7.38284 3193 ft 160 kts 338°
2026-05-06 19:49 50.70966 7.37434 3026 ft 158 kts 321°
2026-05-06 19:49 50.71761 7.36341 3012 ft 150 kts 322°
2026-05-06 19:49 50.72560 7.35254 3025 ft 154 kts 320°
2026-05-06 19:49 50.73362 7.34127 3033 ft 156 kts 320°
2026-05-06 19:50 50.74159 7.32956 3054 ft 157 kts 319°
2026-05-06 19:50 50.74958 7.31826 3190 ft 147 kts 320°
2026-05-06 19:50 50.75713 7.30719 3016 ft 153 kts 319°
2026-05-06 19:50 50.76509 7.29586 2800 ft 155 kts 320°
2026-05-06 19:51 50.77303 7.28431 2585 ft 156 kts 318°
2026-05-06 19:51 50.78108 7.27274 2375 ft 156 kts 320°
2026-05-06 19:51 50.78907 7.26119 2151 ft 155 kts 318°
2026-05-06 19:51 50.79693 7.24984 1938 ft 151 kts 320°
2026-05-06 19:52 50.80468 7.23874 1735 ft 149 kts 318°
2026-05-06 19:52 50.81206 7.22793 1514 ft 139 kts 320°
2026-05-06 19:52 50.81889 7.21817 1333 ft 127 kts 318°
2026-05-06 19:52 50.82514 7.20899 1158 ft 120 kts 320°
2026-05-06 19:53 50.83136 7.20017 992 ft 120 kts 318°
2026-05-06 19:53 50.83736 7.19129 825 ft 116 kts 317°
2026-05-06 19:53 50.84338 7.18273 673 ft 117 kts 319°
2026-05-06 19:53 50.84945 7.17406 521 ft 117 kts 317°
2026-05-06 19:54 50.85516 7.16550 365 ft 109 kts 317°
2026-05-06 19:54 50.86041 7.15776 297 ft 98 kts 323°
2026-05-06 19:54 50.86508 7.15162 280 ft 66 kts 319°
2026-05-06 19:54 50.86664 7.14932 272 ft 15 kts 315°
2026-05-06 19:55 50.86750 7.14787 268 ft 22 kts 313°
2026-05-06 19:55 50.86853 7.14548 261 ft 31 kts 294°
2026-05-06 19:55 50.86887 7.14324 258 ft 21 kts 280°
2026-05-06 19:55 50.86917 7.14110 255 ft 13 kts 300°
2026-05-06 19:56 50.86995 7.13979 248 ft 20 kts 316°
2026-05-06 19:56 50.87109 7.13805 241 ft 25 kts 314°
2026-05-06 19:56 50.87211 7.13663 237 ft 19 kts 319°
2026-05-06 19:56 50.87317 7.13514 234 ft 22 kts 316°
2026-05-06 19:57 50.87427 7.13350 232 ft 20 kts 317°
2026-05-06 19:57 50.87523 7.13211 232 ft 18 kts 318°
2026-05-06 19:57 50.87613 7.13082 232 ft 17 kts 317°
2026-05-06 19:57 50.87702 7.12952 232 ft 15 kts 313°
2026-05-06 19:58 50.87770 7.12850 232 ft 12 kts 317°
2026-05-06 19:58 50.87786 7.12744 232 ft 10 kts 256°
2026-05-06 19:58 50.87769 7.12640 233 ft 9 kts 256°
2026-05-06 19:58 50.87747 7.12550 232 ft 9 kts 225°
2026-05-06 19:59 50.87693 7.12511 232 ft 9 kts 198°
2026-05-06 19:59 50.87632 7.12480 232 ft 10 kts 197°
2026-05-06 19:59 50.87573 7.12451 232 ft 8 kts 201°
2026-05-06 19:59 50.87538 7.12390 232 ft 8 kts 261°
2026-05-06 20:00 50.87557 7.12322 232 ft 6 kts 306°
2026-05-06 20:00 50.87575 7.12269 232 ft 6 kts 297°
2026-05-06 20:00 50.87593 7.12212 234 ft 6 kts 292°
2026-05-06 20:00 50.87611 7.12154 233 ft 4 kts 292°
2026-05-06 20:01 50.87613 7.12127 232 ft 3 kts 256°
2026-05-06 20:01 50.87602 7.12108 232 ft 3 kts 201°
2026-05-06 20:01 50.87578 7.12103 232 ft 2 kts 198°
2026-05-06 20:01 50.87569 7.12089 234 ft 1 kts 245°
2026-05-06 20:02 50.87564 7.12068 232 ft 3 kts 248°
2026-05-06 20:02 50.87561 7.12056 232 ft 0 kts 251°